Weather History for Port Angeles, WA

Change the Weather History Date:

Friday, January 10, 2014

  Actual Average Record
Temperature  
Mean Temperature 45 °F -  
Max Temperature 48 °F 44 °F 59 °F (1986)
Min Temperature 42 °F 34 °F 20 °F (1949)
Degree Days  
Heating Degree Days 20    
Moisture  
Dew Point 41 °F    
Average Humidity 87    
Maximum Humidity 100    
Minimum Humidity 68    
Precipitation  
Precipitation 0.72 in - - ()
Sea Level Pressure  
Sea Level Pressure 29.78 in    
Wind  
Wind Speed 6 mph (WSW)    
Max Wind Speed 17 mph    
Max Gust Speed 28 mph    
Visibility 7 miles    
Events Rain    
Averages and records for this station are not official NWS values.
T = Trace of Precipitation, MM = Missing Value Source: NWS Daily Summary

Daily Weather History Graph

Daily Weather History Graph

Search for Another Location

Airport:

Trip Planner

Search our weather history database for the weather conditions in past years. The results will help you decide how hot, cold, wet, or windy it might be!

Date:

Astronomy

Jan. 10, 2014 Rise Set
Actual Time 8:02 AM PST 4:41 PM PST
Civil Twilight 7:26 AM PST 5:17 PM PST
Nautical Twilight 6:47 AM PST 5:56 PM PST
Astronomical Twilight 6:09 AM PST 6:33 PM PST
Moon 12:55 PM PST (1/10) 3:07 AM PST (1/10)
Length of Visible Light 9h 50m
Length of Day
8h 39m
Waxing Gibbous, 76% of the Moon is Illuminated
Jan 10
Waxing Gibbous
Jan 15
Full
Jan 23
Last Quarter
Jan 30
New
Feb 6
First Quarter

Hourly Weather History & Observations

Time (PST) Temp. Windchill Dew Point Humidity Pressure Visibility Wind Dir Wind Speed Gust Speed Precip Events Conditions
12:53 AM 46.0 °F 41.9 °F 37.9 °F 73% 29.84 in 10.0 mi WSW 8.1 mph - 0.00 in Rain Light Rain
1:53 AM 46.0 °F 41.9 °F 37.9 °F 73% 29.87 in 10.0 mi WSW 8.1 mph - 0.00 in   Mostly Cloudy
2:53 AM 46.9 °F - 37.9 °F 71% 29.89 in 10.0 mi WNW 10.4 mph - N/A   Mostly Cloudy
3:53 AM 46.9 °F - 37.9 °F 71% 29.89 in 10.0 mi WNW 9.2 mph - N/A   Clear
4:53 AM 48.0 °F - 37.9 °F 68% 29.91 in 10.0 mi WNW 10.4 mph - N/A   Mostly Cloudy
5:53 AM 48.0 °F - 39.9 °F 74% 29.95 in 10.0 mi West 8.1 mph - N/A   Overcast
6:53 AM 46.9 °F - 39.9 °F 77% 29.95 in 10.0 mi WNW 17.3 mph 27.6 mph N/A   Mostly Cloudy
7:53 AM 46.0 °F 39.3 °F 39.9 °F 79% 29.97 in 10.0 mi WNW 16.1 mph 21.9 mph N/A   Mostly Cloudy
8:53 AM 46.0 °F 41.4 °F 39.9 °F 79% 30.01 in 10.0 mi WNW 9.2 mph - N/A   Mostly Cloudy
9:53 AM 46.0 °F 44.8 °F 39.9 °F 79% 30.04 in 10.0 mi Variable 3.5 mph - N/A   Mostly Cloudy
10:38 AM 46.9 °F - 39.9 °F 77% 30.04 in 10.0 mi Calm Calm - N/A   Overcast
10:53 AM 46.9 °F - 39.9 °F 77% 30.05 in 10.0 mi East 3.5 mph - N/A   Overcast
11:53 AM 46.9 °F - 41.0 °F 80% 30.02 in 10.0 mi SE 5.8 mph - N/A   Overcast
12:53 PM 48.0 °F - 41.0 °F 77% 30.00 in 10.0 mi ENE 3.5 mph - N/A   Overcast
1:53 PM 46.9 °F - 41.0 °F 80% 29.98 in 10.0 mi Calm Calm - 0.00 in Rain Light Rain
2:53 PM 46.0 °F - 42.1 °F 86% 29.95 in 10.0 mi Calm Calm - 0.01 in Rain Light Rain
3:01 PM 45.0 °F - 42.1 °F 90% 29.94 in 10.0 mi Calm Calm - 0.00 in Rain Light Rain
3:38 PM 45.0 °F 41.8 °F 42.1 °F 90% 29.90 in 6.0 mi SE 5.8 mph - 0.03 in Rain Light Rain
3:53 PM 45.0 °F 42.6 °F 42.1 °F 90% 29.88 in 6.0 mi ESE 4.6 mph - 0.06 in Rain Light Rain
4:17 PM 45.0 °F 43.5 °F 43.0 °F 93% 29.86 in 6.0 mi ENE 3.5 mph - 0.01 in Rain Light Rain
4:53 PM 44.1 °F 42.5 °F 43.0 °F 96% 29.83 in 8.0 mi SE 3.5 mph - 0.05 in Rain Light Rain
5:09 PM 44.1 °F - 43.0 °F 96% 29.80 in 5.0 mi Calm Calm - 0.02 in Rain Light Rain
5:49 PM 42.8 °F - 42.8 °F 100% 29.73 in 4.0 mi Calm Calm - 0.05 in Rain Light Rain
5:53 PM 43.0 °F - 42.1 °F 97% 29.73 in 5.0 mi Calm Calm - 0.05 in Rain Light Rain
6:10 PM 43.0 °F - 42.1 °F 97% 29.71 in 5.0 mi Calm Calm - 0.01 in Rain Light Rain
6:18 PM 43.0 °F 40.3 °F 41.0 °F 93% 29.70 in 3.0 mi West 4.6 mph - 0.01 in Rain Light Rain
6:41 PM 43.0 °F - 42.1 °F 97% 29.67 in 2.5 mi Calm Calm - 0.05 in Rain Light Rain
6:53 PM 43.0 °F 40.3 °F 41.0 °F 93% 29.69 in 3.0 mi West 4.6 mph - 0.06 in Rain Light Rain
7:03 PM 43.0 °F 38.8 °F 42.1 °F 97% 29.69 in 3.0 mi West 6.9 mph - 0.01 in Rain Light Rain
7:53 PM 43.0 °F 41.3 °F 42.1 °F 97% 29.64 in 6.0 mi West 3.5 mph - 0.09 in Rain Light Rain
8:19 PM 43.0 °F - 42.1 °F 97% 29.61 in 6.0 mi Calm Calm - 0.03 in Rain Light Rain
8:37 PM 43.0 °F 39.5 °F 42.1 °F 97% 29.57 in 6.0 mi SE 5.8 mph - 0.06 in Rain Light Rain
8:53 PM 43.0 °F 38.8 °F 41.0 °F 93% 29.55 in 4.0 mi ESE 6.9 mph - 0.09 in Rain Rain
9:37 PM 43.0 °F 41.3 °F 42.1 °F 97% 29.50 in 5.0 mi Variable 3.5 mph - 0.09 in Rain Rain
9:53 PM 44.1 °F - 42.1 °F 93% 29.50 in 3.0 mi Calm Calm - 0.15 in Rain Rain
10:02 PM 43.0 °F 41.3 °F 42.1 °F 97% 29.48 in 3.0 mi SE 3.5 mph - 0.04 in Rain Rain
10:42 PM 43.0 °F - 42.1 °F 97% 29.43 in 5.0 mi Calm Calm - 0.08 in Rain Light Rain
10:53 PM 43.0 °F - 42.1 °F 97% 29.43 in 6.0 mi Calm Calm - 0.09 in Rain Light Rain
11:53 PM 44.1 °F 40.8 °F 42.1 °F 93% 29.37 in 6.0 mi Variable 5.8 mph - 0.07 in Rain Light Rain